Regional Weather Roundup
Issued by NWS

Home | Current Version | Previous Version | Graphics & Text | Print | Product List | Glossary On
Versions: 1 2 3 4 5 6 7 8 9 10 11 12 13 14 15 16 17 18 19 20 21 22 23 24 25 26 27 28 29 30 31 32 33 34 35 36 37 38 39 40 41 42 43 44 45 46 47 48 49
000
ASUS43 KDMX 291307
RWRIA

WEATHER ROUNDUP FOR IOWA
NATIONAL WEATHER SERVICE DES MOINES IA
800 AM CDT MON SEP 29 2014

NOTE: "FAIR" INDICATES FEW OR NO CLOUDS BELOW 12,000 FEET WITH NO
SIGNIFICANT WEATHER AND/OR OBSTRUCTIONS TO VISIBILITY.

* - THESE STATIONS ARE NOT NWS STATIONS...THUS NOT UNDER NWS
QUALITY CONTROL.  THEY ALSO DO NOT REPORT WEATHER SUCH
AS PRECIPITATION OR FOG.

IAZ001>003-012>014-020>022-031>034-043>046-291400-
   NORTHWEST IOWA

CITY           SKY/WX    TMP DP  RH WIND       PRES   REMARKS
CARROLL *      CLOUDY    63  59  88 SW5       30.07S
CHEROKEE *     CLOUDY    63  63 100 NE3       30.06R FOG
DENISON *      CLEAR     59  59 100 CALM      30.06S FOG
LE MARS *      CLOUDY    64  63  94 N3        30.07R FOG
ORANGE CITY *  CLOUDY    61  57  88 NE8       30.08R
SHELDON *      CLOUDY    57  57 100 NE8G15    30.08R
SIOUX CITY     CLOUDY    65  61  87 S6        30.05S
SPENCER        CLOUDY    58  57  97 N9        30.08R FOG
STORM LAKE *   MOCLDY    63  61  94 SW5       30.07S
$$

IAZ055>058-069>071-079>083-090>094-291400-
   SOUTHWEST IOWA

CITY           SKY/WX    TMP DP  RH WIND       PRES   REMARKS
ATLANTIC *     CLOUDY    57  57 100 VRB5G13   30.09R
AUDUBON *      CLEAR     59  54  82 SW3       30.09F
CLARINDA *     CLEAR     52  52 100 CALM      30.10R FOG
COUNCIL BLFS * PTCLDY    57  57 100 NE3       30.07R
CRESTON *      CLOUDY    59  57  94 SW3       30.10R
HARLAN  *      CLOUDY    57  57 100 CALM      30.12S FOG
LAMONI         PTCLDY    60  57  89 SW5       30.09R
RED OAK *      MOCLDY    55  54  94 CALM      30.08S
SHENANDOAH *   CLEAR     55  55 100 CALM      30.09R FOG
$$

IAZ047>049-059>061-072>074-084-291400-
   CENTRAL IOWA

CITY           SKY/WX    TMP DP  RH WIND       PRES   REMARKS
AMES           MOCLDY    58  57  97 CALM      30.07R FOG
ANKENY *       CLEAR     55  55 100 CALM      30.07R
CHARITON *     CLEAR     59  57  94 SW6       30.08R FOG
DES MOINES     PTCLDY    63  57  81 CALM      30.07R
GRINNELL*      CLEAR     59  57  94 CALM      30.07S FOG
KNOXVILLE *    CLEAR     59  55  88 SW3       30.06R
PELLA *        FOG       57  57 100 CALM      30.08R VSB 3/4
PERRY *        CLOUDY    59  59 100 CALM      30.08R FOG
$$

IAZ004>006-015-016-023>025-035-036-291400-
   NORTH CENTRAL IOWA

CITY           SKY/WX    TMP DP  RH WIND       PRES   REMARKS
ALGONA *       MOCLDY    57  57 100 N8        30.08R FOG
CLARION *      CLEAR     57  57 100 CALM      30.06R
ESTHERVILLE    FOG       58  58 100 N8        30.08S VSB 1/2
FORT DODGE *   MOCLDY    61  57  88 CALM      30.07S
MASON CITY     CLEAR     56  55  97 W6        30.07R FOG
FOREST CITY *  CLEAR     54  54 100 CALM      30.06S FOG
IOWA FALLS *     N/A     55  54  94 CALM      30.07R FOG
$$

IAZ007>011-017>019-026>030-037>042-050>054-066-291400-
   NORTHEAST IOWA

CITY           SKY/WX    TMP DP  RH WIND       PRES   REMARKS
CEDAR RAPIDS   CLEAR     55  55 100 CALM      30.06R
CHARLES CITY * CLEAR     57  55  94 CALM      30.06S FOG
CLINTON *      SUNNY     55  54  94 CALM      30.08S
DECORAH *      CLEAR     59  55  88 CALM      30.04S
MONTICELLO *   SUNNY     54  54 100 CALM      30.05S FOG
OELWEIN *      CLEAR     55  54  94 S3        30.06S
WATERLOO       CLEAR     54  52  94 CALM      30.05R FOG
$$

IAZ064-065-067-068-078-291400-
   EAST CENTRAL IOWA

CITY           SKY/WX    TMP DP  RH WIND       PRES   REMARKS
IOWA CITY      SUNNY     58  57  97 CALM      30.07S FOG
MT. PLEASANT * SUNNY     57  57 100 CALM      30.08R FOG
MUSCATINE *    SUNNY     55  54  94 CALM      30.06S
QUAD CITIES    SUNNY     57  54  89 CALM      30.06R
$$

IAZ062-063-075>077-085>089-095>099-291400-
   SOUTHEAST IOWA

CITY           SKY/WX    TMP DP  RH WIND       PRES   REMARKS
BURLINGTON     SUNNY     60  58  92 CALM      30.06R FOG
FAIRFIELD *    CLEAR     57  55  94 CALM      30.07S FOG
FORT MADISON * SUNNY     63  61  94 CALM      30.08R
KEOKUK *       FOG       59  57  94 CALM      30.06S VSB 1
OSKALOOSA *      N/A     55  54  94 CALM      30.07S FOG
CENTERVILLE *  CLEAR     57  57 100 CALM      30.09R
OTTUMWA        CLEAR     58  58 100 NW3       30.05F FOG
WASHINGTON *   SUNNY     59  59 100 CALM      30.07R FOG
$$

ABBREVIATIONS USED IN REMARKS
   TC - TEMPERATURES IN CELSIUS
  WCI - WIND CHILL INDEX
   HX - HEAT INDEX
  VSB - VISIBILITY
$$




USA.gov is the U.S. government's official web portal to all federal, state and local government web resources and services.